Time[GMT],salinity[psu](1m),sigma_t[kg/m^3](1m),conductivity[msiemens/cm](1m),temperature[C](1m)
2008-02-04 08:30,31.640,25.121,29.660,3.93
2008-02-04 09:00,31.635,25.119,29.632,3.90
2008-02-04 09:30,31.635,25.120,29.629,3.90
2008-02-04 10:00,31.632,25.120,29.611,3.88
2008-02-04 10:30,31.632,25.120,29.610,3.88
2008-02-04 11:00,31.631,25.119,29.605,3.87
2008-02-04 11:30,31.634,25.121,29.616,3.88
2008-02-04 12:00,31.636,25.123,29.617,3.88
2008-02-04 12:30,31.637,25.124,29.604,3.87
2008-02-04 13:00,31.645,25.128,29.639,3.90
2008-02-04 13:30,31.637,25.126,29.594,3.85
2008-02-04 14:00,31.474,25.031,29.145,3.47
2008-02-04 14:30,31.442,25.009,29.088,3.44
2008-02-04 15:00,31.447,25.012,29.093,3.44
2008-02-04 15:30,31.408,24.990,28.984,3.34
2008-02-04 16:00,31.383,24.971,28.951,3.33
2008-02-04 16:30,31.379,24.970,28.935,3.31
2008-02-04 17:00,31.455,25.013,29.157,3.51
2008-02-04 17:30,31.385,24.968,29.000,3.39
2008-02-04 18:00,31.397,24.978,28.994,3.37
2008-02-04 18:30,31.460,25.019,29.138,3.48
2008-02-04 19:00,31.502,25.048,29.220,3.54
2008-02-04 19:30,31.631,25.120,29.602,3.87
2008-02-04 20:00,31.704,25.162,29.802,4.04
2008-02-04 20:30,31.710,25.167,29.801,4.03
2008-02-04 21:00,31.699,25.161,29.774,4.01
2008-02-04 21:30,31.691,25.156,29.749,3.99
2008-02-04 22:00,31.683,25.152,29.718,3.96
2008-02-04 22:30,31.678,25.147,29.732,3.98
2008-02-04 23:00,31.655,25.133,29.666,3.92
2008-02-04 23:30,31.504,25.050,29.212,3.52
2008-02-05 00:00,31.453,25.020,29.071,3.40
2008-02-05 00:30,31.469,25.030,29.112,3.44
2008-02-05 01:00,31.475,25.038,29.089,3.40
2008-02-05 01:30,31.474,25.038,29.076,3.39
2008-02-05 02:00,31.489,25.046,29.127,3.43
2008-02-05 02:30,31.479,25.043,29.071,3.38
2008-02-05 03:00,31.475,25.039,29.077,3.39
2008-02-05 03:30,31.489,25.051,29.082,3.38
2008-02-05 04:00,31.474,25.044,29.021,3.32
2008-02-05 04:30,31.550,25.097,29.159,3.41
2008-02-05 05:00,31.581,25.094,29.429,3.71
2008-02-05 05:30,31.631,25.123,29.567,3.83
2008-02-05 06:00,31.636,25.128,29.566,3.82
2008-02-05 06:30,31.635,25.131,29.526,3.77
2008-02-05 07:00,31.635,25.131,29.539,3.79
2008-02-05 07:30,31.669,25.153,29.608,3.84
2008-02-05 08:00,31.680,25.156,29.665,3.90
2008-02-05 08:30,31.677,25.153,29.660,3.89
2008-02-05 09:00,31.689,25.160,29.696,3.92
2008-02-05 09:30,31.642,25.133,29.565,3.81
2008-02-05 10:00,31.624,25.120,29.539,3.80
2008-02-05 10:30,31.620,25.119,29.523,3.79
2008-02-05 11:00,31.623,25.120,29.537,3.80
2008-02-05 11:30,31.630,25.122,29.571,3.83
2008-02-05 12:00,31.576,25.098,29.363,3.63
2008-02-05 12:30,31.578,25.095,29.402,3.68
2008-02-05 13:00,31.530,25.065,29.287,3.59
2008-02-05 13:30,31.493,25.045,29.164,3.48
2008-02-05 14:00,31.500,25.046,29.213,3.53
2008-02-05 14:30,31.489,25.039,29.189,3.51
2008-02-05 15:00,31.496,25.043,29.212,3.53
2008-02-05 15:30,31.494,25.043,29.201,3.52
2008-02-05 16:00,31.531,25.064,29.301,3.61
2008-02-05 16:30,31.569,25.090,29.375,3.66
2008-02-05 17:00,31.584,25.100,29.409,3.68
2008-02-05 17:30,31.584,25.100,29.402,3.67
2008-02-05 18:00,31.594,25.106,29.428,3.70
2008-02-05 18:30,31.617,25.115,29.534,3.80
2008-02-05 19:00,31.618,25.115,29.545,3.81
2008-02-05 19:30,31.618,25.115,29.544,3.81
2008-02-05 20:00,31.624,25.119,29.555,3.82
2008-02-05 20:30,31.635,25.126,29.580,3.84
2008-02-05 21:00,31.636,25.125,29.586,3.85
2008-02-05 21:30,31.631,25.122,29.579,3.84
2008-02-05 22:00,31.632,25.123,29.577,3.84
2008-02-05 22:30,31.630,25.121,29.575,3.84
2008-02-05 23:00,31.629,25.122,29.562,3.82
2008-02-05 23:30,31.596,25.104,29.469,3.74
2008-02-06 00:00,31.572,25.088,29.416,3.70
2008-02-06 00:30,31.573,25.087,29.439,3.73
2008-02-06 01:00,31.585,25.091,29.494,3.79
2008-02-06 01:30,31.602,25.099,29.555,3.84
2008-02-06 02:00,31.620,25.110,29.600,3.88
2008-02-06 02:30,31.632,25.118,29.623,3.89
2008-02-06 03:00,31.638,25.121,29.636,3.90
2008-02-06 03:30,31.627,25.114,29.619,3.89
2008-02-06 04:00,31.595,25.096,29.528,3.82
2008-02-06 04:30,31.592,25.094,29.515,3.81
2008-02-06 05:00,31.582,25.091,29.471,3.76
2008-02-06 05:30,31.579,25.090,29.451,3.74
2008-02-06 06:00,31.604,25.107,29.497,3.77
2008-02-06 06:30,31.621,25.117,29.546,3.81
2008-02-06 07:00,31.633,25.124,29.583,3.85
2008-02-06 07:30,31.644,25.130,29.618,3.88
2008-02-06 08:00,31.648,25.131,29.629,3.89
2008-02-06 08:30,31.650,25.133,29.632,3.89
2008-02-06 09:00,31.651,25.133,29.634,3.89
2008-02-06 09:30,31.654,25.135,29.644,3.90
2008-02-06 10:00,31.653,25.135,29.639,3.89
2008-02-06 10:30,31.650,25.134,29.620,3.87
2008-02-06 11:00,31.639,25.128,29.589,3.85
2008-02-06 11:30,31.609,25.111,29.502,3.77
2008-02-06 12:00,31.556,25.070,29.442,3.75
2008-02-06 12:30,31.536,25.056,29.419,3.74
2008-02-06 13:00,31.539,25.058,29.422,3.75
2008-02-06 13:30,31.587,25.089,29.519,3.82
2008-02-06 14:00,31.621,25.114,29.572,3.84
2008-02-06 14:30,31.632,25.122,29.593,3.86
2008-02-06 15:00,31.638,25.125,29.611,3.87
2008-02-06 15:30,31.642,25.127,29.621,3.88
2008-02-06 16:00,31.642,25.127,29.621,3.88
2008-02-06 16:30,31.627,25.116,29.599,3.87
2008-02-06 17:00,31.623,25.113,29.593,3.87
2008-02-06 17:30,31.617,25.109,29.578,3.86
2008-02-06 18:00,31.586,25.087,29.529,3.83
2008-02-06 18:30,31.557,25.067,29.478,3.80
2008-02-06 19:00,31.533,25.050,29.440,3.77
2008-02-06 19:30,31.515,25.039,29.398,3.74
2008-02-06 20:00,31.531,25.052,29.409,3.74
2008-02-06 20:30,31.580,25.087,29.494,3.79
2008-02-06 21:00,31.580,25.086,29.492,3.79
2008-02-06 21:30,31.594,25.096,29.518,3.81
2008-02-06 22:00,31.602,25.101,29.537,3.82
2008-02-06 22:30,31.605,25.104,29.533,3.81
2008-02-06 23:00,31.609,25.107,29.537,3.81
2008-02-06 23:30,31.601,25.103,29.514,3.79
2008-02-07 00:00,31.565,25.078,29.446,3.75
2008-02-07 00:30,31.554,25.071,29.428,3.74
2008-02-07 01:00,31.554,25.069,29.442,3.76
2008-02-07 01:30,31.571,25.078,29.495,3.80
2008-02-07 02:00,31.594,25.095,29.527,3.82
2008-02-07 02:30,31.614,25.108,29.564,3.84
2008-02-07 03:00,31.624,25.116,29.578,3.85
2008-02-07 03:30,31.634,25.124,29.582,3.84
2008-02-07 04:00,31.628,25.119,29.588,3.86
2008-02-07 04:30,31.628,25.119,29.587,3.86
2008-02-07 05:00,31.635,25.124,29.591,3.85
2008-02-07 05:30,31.615,25.109,29.568,3.85
2008-02-07 06:00,31.606,25.103,29.553,3.84
2008-02-07 06:30,31.609,25.105,29.554,3.84
2008-02-07 07:00,31.585,25.090,29.500,3.79
2008-02-07 07:30,31.571,25.082,29.461,3.76
2008-02-07 08:00,31.568,25.083,29.427,3.72
2008-02-07 08:30,31.582,25.090,29.476,3.77
2008-02-07 09:00,31.574,25.085,29.461,3.76
2008-02-07 09:30,31.575,25.086,29.456,3.75
2008-02-07 10:00,31.574,25.088,29.434,3.72
2008-02-07 10:30,31.569,25.082,29.440,3.74
2008-02-07 11:00,31.574,25.087,29.438,3.73
2008-02-07 11:30,31.564,25.082,29.404,3.70
2008-02-07 12:00,31.574,25.085,29.455,3.75
2008-02-07 12:30,31.594,25.103,29.458,3.73
2008-02-07 13:00,31.624,25.118,29.560,3.83
2008-02-07 13:30,31.558,25.083,29.350,3.64
2008-02-07 14:00,31.560,25.083,29.369,3.66
2008-02-07 14:30,31.539,25.072,29.294,3.59
2008-02-07 15:00,31.531,25.067,29.282,3.58
2008-02-07 15:30,31.519,25.058,29.259,3.57
2008-02-07 16:00,31.517,25.057,29.253,3.56
2008-02-07 16:30,31.520,25.059,29.259,3.57
2008-02-07 17:00,31.527,25.065,29.264,3.56
2008-02-07 17:30,31.538,25.070,29.304,3.60
2008-02-07 18:00,31.550,25.078,29.327,3.62
2008-02-07 18:30,31.568,25.086,29.400,3.69
2008-02-07 19:00,31.601,25.108,29.462,3.73
2008-02-07 19:30,31.615,25.119,29.485,3.74
2008-02-07 20:00,31.601,25.108,29.470,3.74
2008-02-07 20:30,31.584,25.098,29.419,3.70
2008-02-07 21:00,31.573,25.088,29.423,3.71
2008-02-07 21:30,31.584,25.096,29.446,3.73
2008-02-07 22:00,31.580,25.094,29.430,3.71
2008-02-07 22:30,31.579,25.093,29.430,3.71
2008-02-07 23:00,31.577,25.092,29.420,3.70
2008-02-07 23:30,31.576,25.094,29.387,3.66
2008-02-08 00:00,31.569,25.090,29.373,3.65
2008-02-08 00:30,31.575,25.103,29.304,3.56
2008-02-08 01:00,31.615,25.120,29.475,3.73
2008-02-08 01:30,31.549,25.082,29.282,3.56
2008-02-08 02:00,31.524,25.069,29.202,3.49
2008-02-08 02:30,31.500,25.054,29.144,3.44
2008-02-08 03:00,31.466,25.033,29.062,3.38
2008-02-08 03:30,31.454,25.023,29.051,3.38
2008-02-08 04:00,31.436,25.012,29.010,3.35
2008-02-08 04:30,31.448,25.022,29.013,3.34
2008-02-08 05:00,31.441,25.016,29.004,3.33
2008-02-08 05:30,31.449,25.024,29.004,3.33
2008-02-08 06:00,31.441,25.019,28.985,3.31
2008-02-08 06:30,31.455,25.031,28.988,3.30
2008-02-08 07:00,31.474,25.041,29.054,3.36
2008-02-08 07:30,31.479,25.045,29.056,3.36
2008-02-08 08:00,31.496,25.055,29.105,3.40
2008-02-08 08:30,31.508,25.064,29.117,3.40
2008-02-08 09:00,31.513,25.069,29.113,3.39
2008-02-08 09:30,31.519,25.075,29.113,3.39
2008-02-08 10:00,31.546,25.094,29.154,3.41
2008-02-08 10:30,31.557,25.099,29.196,3.45
2008-02-08 11:00,31.528,25.083,29.102,3.37
2008-02-08 11:30,31.554,25.092,29.240,3.51
2008-02-08 12:00,31.516,25.074,29.083,3.35
2008-02-08 12:30,31.487,25.054,29.040,3.33
2008-02-08 13:00,31.460,25.036,28.979,3.28
2008-02-08 13:30,31.463,25.037,28.999,3.31
2008-02-08 14:00,31.471,25.039,29.046,3.35
2008-02-08 14:30,31.473,25.039,29.064,3.37
2008-02-08 15:00,31.458,25.033,28.993,3.30
2008-02-08 15:30,31.436,25.019,28.947,3.27
2008-02-08 16:00,31.419,25.012,28.865,3.18
2008-02-08 16:30,31.411,25.007,28.845,3.17
2008-02-08 17:00,31.408,25.006,28.829,3.15
2008-02-08 17:30,31.404,25.002,28.833,3.16
2008-02-08 18:00,31.410,25.005,28.857,3.18
2008-02-08 18:30,31.404,25.002,28.833,3.16
2008-02-08 19:00,31.394,24.993,28.833,3.17
2008-02-08 19:30,31.389,24.989,28.838,3.18
2008-02-08 20:00,31.399,24.995,28.856,3.19
2008-02-08 20:30,31.407,25.002,28.862,3.19
2008-02-08 21:00,31.427,25.013,28.922,3.25
2008-02-08 21:30,31.440,25.023,28.937,3.25
2008-02-08 22:00,31.453,25.032,28.958,3.27
2008-02-08 22:30,31.456,25.034,28.970,3.28
2008-02-08 23:00,31.437,25.020,28.937,3.26
2008-02-08 23:30,31.435,25.018,28.943,3.26
2008-02-09 00:00,31.447,25.025,28.978,3.30
2008-02-09 00:30,31.427,25.011,28.943,3.27
2008-02-09 01:00,31.409,25.002,28.876,3.21
2008-02-09 01:30,31.459,25.032,29.019,3.33
2008-02-09 02:00,31.476,25.044,29.037,3.34
2008-02-09 02:30,31.459,25.032,29.011,3.32
2008-02-09 03:00,31.504,25.065,29.074,3.36
2008-02-09 03:30,31.514,25.066,29.148,3.44
2008-02-09 04:00,31.456,25.034,28.963,3.27
2008-02-09 04:30,31.407,25.002,28.856,3.19
2008-02-09 05:00,31.388,24.992,28.789,3.12
2008-02-09 05:30,31.423,25.014,28.881,3.20
2008-02-09 06:00,31.436,25.022,28.916,3.23
2008-02-09 06:30,31.478,25.046,29.035,3.33
2008-02-09 07:00,31.485,25.048,29.081,3.38
2008-02-09 07:30,31.530,25.076,29.189,3.47
2008-02-09 08:00,31.555,25.086,29.301,3.58
2008-02-09 08:30,31.442,25.021,28.971,3.29
2008-02-09 09:00,31.435,25.020,28.919,3.23
2008-02-09 09:30,31.413,25.004,28.885,3.22
2008-02-09 10:00,31.405,24.999,28.867,3.20
2008-02-09 10:30,31.406,25.001,28.864,3.20
2008-02-09 11:00,31.407,25.000,28.872,3.21
2008-02-09 11:30,31.404,24.999,28.859,3.19
2008-02-09 12:00,31.407,25.000,28.879,3.21
2008-02-09 12:30,31.446,25.027,28.949,3.26
2008-02-09 13:00,31.443,25.024,28.953,3.27
2008-02-09 13:30,31.424,25.011,28.916,3.24
2008-02-09 14:00,31.486,25.050,29.066,3.36
2008-02-09 14:30,31.563,25.092,29.306,3.58
2008-02-09 15:00,31.531,25.073,29.223,3.51
2008-02-09 15:30,31.458,25.030,29.023,3.34
2008-02-09 16:00,31.425,25.010,28.941,3.27
2008-02-09 16:30,31.391,24.988,28.858,3.20
2008-02-09 17:00,31.373,24.975,28.826,3.18
2008-02-09 17:30,31.362,24.969,28.802,3.16
2008-02-09 18:00,31.360,24.967,28.797,3.16
2008-02-09 18:30,31.373,24.975,28.825,3.18
2008-02-09 19:00,31.391,24.987,28.865,3.21
2008-02-09 19:30,31.457,25.028,29.034,3.35
2008-02-09 20:00,31.498,25.051,29.158,3.46
2008-02-09 20:30,31.516,25.062,29.204,3.50
2008-02-09 21:00,31.555,25.086,29.296,3.58
2008-02-09 21:30,31.487,25.049,29.082,3.38
2008-02-09 22:00,31.407,25.002,28.860,3.19
2008-02-09 22:30,31.404,24.999,28.858,3.19
2008-02-09 23:00,31.420,25.006,28.930,3.26
2008-02-09 23:30,31.407,24.996,28.910,3.25
2008-02-10 00:00,31.402,25.003,28.804,3.13
2008-02-10 00:30,31.407,25.008,28.795,3.11
2008-02-10 01:00,31.476,25.044,29.038,3.34
2008-02-10 01:30,31.501,25.059,29.099,3.39
2008-02-10 02:00,31.554,25.085,29.295,3.58
2008-02-10 02:30,31.560,25.092,29.279,3.55
2008-02-10 03:00,31.554,25.090,29.257,3.53
2008-02-10 03:30,31.531,25.075,29.207,3.49
2008-02-10 04:00,31.506,25.064,29.100,3.38
2008-02-10 04:30,31.469,25.039,29.033,3.34
2008-02-10 05:00,31.458,25.032,29.005,3.32
2008-02-10 05:30,31.458,25.031,29.007,3.32
2008-02-10 06:00,31.453,25.029,28.990,3.30
2008-02-10 06:30,31.455,25.027,29.026,3.35
2008-02-10 07:00,31.435,25.020,28.924,3.24
2008-02-10 07:30,31.465,25.039,28.996,3.30
2008-02-10 08:00,31.490,25.055,29.052,3.34
2008-02-10 08:30,31.513,25.071,29.087,3.36
2008-02-10 09:00,31.538,25.081,29.204,3.48
2008-02-10 09:30,31.547,25.089,29.206,3.47
2008-02-10 10:00,31.552,25.090,29.239,3.51
2008-02-10 10:30,31.574,25.104,29.292,3.55
2008-02-10 11:00,31.586,25.100,29.416,3.69
2008-02-10 11:30,31.581,25.097,29.401,3.68
2008-02-10 12:00,31.578,25.098,29.370,3.64
2008-02-10 12:30,31.590,25.108,29.382,3.64
2008-02-10 13:00,31.595,25.114,29.367,3.62
2008-02-10 13:30,31.595,25.110,29.402,3.66
2008-02-10 14:00,31.613,25.126,29.403,3.65
2008-02-10 14:30,31.603,25.119,29.388,3.64
2008-02-10 15:00,31.567,25.097,29.297,3.56
2008-02-10 15:30,31.527,25.072,29.200,3.49
2008-02-10 16:00,31.502,25.058,29.121,3.41
2008-02-10 16:30,31.434,25.015,28.963,3.29
2008-02-10 17:00,31.416,25.002,28.928,3.27
2008-02-10 17:30,31.380,24.980,28.843,3.20
2008-02-10 18:00,31.329,24.945,28.745,3.13
2008-02-10 18:30,31.329,24.946,28.736,3.12
2008-02-10 19:00,31.353,24.964,28.770,3.13
2008-02-10 19:30,31.342,24.955,28.759,3.13
2008-02-10 20:00,31.400,24.991,28.904,3.25
2008-02-10 20:30,31.410,24.997,28.933,3.28
2008-02-10 21:00,31.439,25.016,28.997,3.33
2008-02-10 21:30,31.455,25.025,29.036,3.36
2008-02-10 22:00,31.468,25.035,29.062,3.38
2008-02-10 22:30,31.448,25.021,29.019,3.35
2008-02-10 23:00,31.591,25.111,29.365,3.62
2008-02-10 23:30,31.548,25.080,29.294,3.58
2008-02-11 00:00,31.550,25.075,29.360,3.66
2008-02-11 00:30,31.558,25.082,29.366,3.66
2008-02-11 01:00,31.568,25.089,29.381,3.66
2008-02-11 01:30,31.600,25.111,29.439,3.70
2008-02-11 02:00,31.609,25.118,29.444,3.70
2008-02-11 02:30,31.609,25.120,29.426,3.68
2008-02-11 03:00,31.532,25.075,29.209,3.49
2008-02-11 03:30,31.509,25.062,29.146,3.44
2008-02-11 04:00,31.518,25.068,29.160,3.45
2008-02-11 04:30,31.521,25.068,29.192,3.48
2008-02-11 05:00,31.548,25.086,29.236,3.51
2008-02-11 05:30,31.537,25.072,29.278,3.57
2008-02-11 06:00,31.529,25.070,29.235,3.53
2008-02-11 06:30,31.534,25.069,29.282,3.58
2008-02-11 07:00,31.537,25.076,29.246,3.53
2008-02-11 07:30,31.569,25.094,29.339,3.61
2008-02-11 08:00,31.588,25.103,29.409,3.68
2008-02-11 08:30,31.602,25.115,29.409,3.66
2008-02-11 09:00,31.638,25.137,29.507,3.75
2008-02-11 09:30,31.664,25.149,29.605,3.84
2008-02-11 10:00,31.661,25.149,29.583,3.82
2008-02-11 10:30,31.635,25.141,29.435,3.66
2008-02-11 11:00,31.611,25.129,29.359,3.59
2008-02-11 11:30,31.560,25.096,29.249,3.51
2008-02-11 12:00,31.550,25.089,29.224,3.49
2008-02-11 12:30,31.536,25.083,29.177,3.45
2008-02-11 13:00,31.526,25.075,29.161,3.44
2008-02-11 13:30,31.520,25.070,29.166,3.45
2008-02-11 14:00,31.533,25.080,29.168,3.44
2008-02-11 14:30,31.557,25.097,29.218,3.48
2008-02-11 15:00,31.558,25.096,29.232,3.49
2008-02-11 15:30,31.573,25.107,29.253,3.50
2008-02-11 16:00,31.587,25.117,29.279,3.52
2008-02-11 16:30,31.608,25.131,29.322,3.55
2008-02-11 17:00,31.714,25.189,29.645,3.84
2008-02-11 17:30,31.713,25.188,29.646,3.84
2008-02-11 18:00,31.718,25.194,29.629,3.81
2008-02-11 18:30,31.723,25.198,29.638,3.82
2008-02-11 19:00,31.664,25.169,29.425,3.62
2008-02-11 19:30,31.647,25.160,29.372,3.57
2008-02-11 20:00,31.600,25.129,29.271,3.50
2008-02-11 20:30,31.639,25.157,29.330,3.53
2008-02-11 21:00,31.567,25.109,29.186,3.43
2008-02-11 21:30,31.548,25.095,29.158,3.41
2008-02-11 22:00,31.550,25.098,29.146,3.40
2008-02-11 22:30,31.544,25.092,29.155,3.41
2008-02-11 23:00,31.559,25.100,29.198,3.45
2008-02-11 23:30,31.583,25.114,29.264,3.51
2008-02-12 00:00,31.587,25.116,29.288,3.53
2008-02-12 00:30,31.603,25.126,29.320,3.56
2008-02-12 01:00,31.610,25.132,29.327,3.56
2008-02-12 01:30,31.609,25.131,29.328,3.56
2008-02-12 02:00,31.609,25.131,29.326,3.56
2008-02-12 02:30,31.598,25.124,29.302,3.54
2008-02-12 03:00,31.591,25.121,29.265,3.50
2008-02-12 03:30,31.592,25.124,29.253,3.48
2008-02-12 04:00,31.585,25.119,29.238,3.47
2008-02-12 04:30,31.560,25.104,29.179,3.43
2008-02-12 05:00,31.547,25.094,29.153,3.41
2008-02-12 05:30,31.535,25.090,29.098,3.35
2008-02-12 06:00,31.533,25.091,29.080,3.33
2008-02-12 06:30,31.539,25.095,29.082,3.33
2008-02-12 07:00,31.539,25.095,29.085,3.33
2008-02-12 07:30,31.538,25.093,29.090,3.34
2008-02-12 08:00,31.542,25.096,29.098,3.35
2008-02-12 08:30,31.543,25.098,29.092,3.34
2008-02-12 09:00,31.538,25.094,29.094,3.34
2008-02-12 09:30,31.550,25.102,29.116,3.36
2008-02-12 10:00,31.567,25.113,29.142,3.37
2008-02-12 10:30,31.581,25.123,29.177,3.40
2008-02-12 11:00,31.640,25.157,29.340,3.54
2008-02-12 11:30,31.661,25.168,29.403,3.60
2008-02-12 12:00,31.676,25.180,29.422,3.60
2008-02-12 12:30,31.682,25.184,29.430,3.61
2008-02-12 13:00,31.699,25.194,29.479,3.65
2008-02-12 13:30,31.697,25.191,29.489,3.66
2008-02-12 14:00,31.703,25.195,29.500,3.67
2008-02-12 14:30,31.697,25.190,29.496,3.67
2008-02-12 15:00,31.690,25.186,29.476,3.66
2008-02-12 15:30,31.682,25.182,29.446,3.63
2008-02-12 16:00,31.676,25.179,29.430,3.61
2008-02-12 16:30,31.671,25.176,29.414,3.60
2008-02-12 17:00,31.670,25.177,29.401,3.59
2008-02-12 17:30,31.652,25.165,29.363,3.56
2008-02-12 18:00,31.630,25.153,29.294,3.49
2008-02-12 18:30,31.607,25.139,29.237,3.45
2008-02-12 19:00,31.602,25.136,29.223,3.44
2008-02-12 19:30,31.606,25.139,29.228,3.44
2008-02-12 20:00,31.619,25.147,29.265,3.47
2008-02-12 20:30,31.665,25.175,29.384,3.57
2008-02-12 21:00,31.687,25.188,29.441,3.62
2008-02-12 21:30,31.684,25.186,29.431,3.61
2008-02-12 22:00,31.704,25.198,29.488,3.66
2008-02-12 22:30,31.723,25.211,29.523,3.68
2008-02-12 23:00,31.764,25.232,29.655,3.80
2008-02-12 23:30,31.757,25.238,29.543,3.67
2008-02-13 00:00,31.732,25.226,29.452,3.58
2008-02-13 00:30,31.710,25.212,29.408,3.55
2008-02-13 01:00,31.703,25.208,29.381,3.53
2008-02-13 01:30,31.677,25.196,29.278,3.43
2008-02-13 02:00,31.676,25.195,29.281,3.43
2008-02-13 02:30,31.678,25.199,29.269,3.41
2008-02-13 03:00,31.686,25.200,29.323,3.47
2008-02-13 03:30,31.707,25.213,29.372,3.51
2008-02-13 04:00,31.697,25.208,29.331,3.47
2008-02-13 04:30,31.686,25.205,29.276,3.42
2008-02-13 05:00,31.724,25.224,29.411,3.54
2008-02-13 05:30,31.746,25.234,29.497,3.62
2008-02-13 06:00,31.785,25.248,29.681,3.81
2008-02-13 06:30,31.737,25.225,29.506,3.64
2008-02-13 07:00,31.728,25.221,29.461,3.60
2008-02-13 07:30,31.717,25.211,29.477,3.63
2008-02-13 08:00,31.727,25.220,29.469,3.61
2008-02-13 08:30,31.717,25.212,29.467,3.62
2008-02-13 09:00,31.728,25.220,29.474,3.62
2008-02-13 09:30,31.764,25.236,29.618,3.75
2008-02-13 10:00,31.738,25.225,29.510,3.65
2008-02-13 10:30,31.719,25.218,29.419,3.56
2008-02-13 11:00,31.687,25.200,29.320,3.47
2008-02-13 11:30,31.682,25.198,29.306,3.46
2008-02-13 12:00,31.657,25.183,29.238,3.40
2008-02-13 12:30,31.641,25.176,29.171,3.33
2008-02-13 13:00,31.658,25.184,29.240,3.40
2008-02-13 13:30,31.680,25.198,29.289,3.44
2008-02-13 14:00,31.692,25.201,29.357,3.51
2008-02-13 14:30,31.697,25.205,29.362,3.51
2008-02-13 15:00,31.699,25.207,29.364,3.51
2008-02-13 15:30,31.712,25.213,29.415,3.56
2008-02-13 16:00,31.709,25.209,29.417,3.57
2008-02-13 16:30,31.719,25.215,29.450,3.60
2008-02-13 17:00,31.713,25.207,29.475,3.63
2008-02-13 17:30,31.734,25.222,29.510,3.65
2008-02-13 18:00,31.763,25.236,29.612,3.75
2008-02-13 18:30,31.761,25.234,29.620,3.76
2008-02-13 19:00,31.754,25.228,29.606,3.75
2008-02-13 19:30,31.730,25.215,29.537,3.69
2008-02-13 20:00,31.694,25.193,29.445,3.61
2008-02-13 20:30,31.714,25.204,29.512,3.67
2008-02-13 21:00,31.732,25.214,29.560,3.71
2008-02-13 21:30,31.736,25.216,29.571,3.72
2008-02-13 22:00,31.741,25.218,29.595,3.75
2008-02-13 22:30,31.740,25.218,29.593,3.75
2008-02-13 23:00,31.762,25.231,29.645,3.79
2008-02-13 23:30,31.764,25.231,29.666,3.81
2008-02-14 00:00,31.751,25.222,29.641,3.79
2008-02-14 00:30,31.741,25.215,29.619,3.78
2008-02-14 01:00,31.727,25.209,29.569,3.73
2008-02-14 01:30,31.733,25.214,29.574,3.73
2008-02-14 02:00,31.740,25.220,29.574,3.72
2008-02-14 02:30,31.740,25.219,29.577,3.73
2008-02-14 03:00,31.725,25.204,29.589,3.76
2008-02-14 03:30,31.740,25.214,29.631,3.79
2008-02-14 04:00,31.754,25.224,29.647,3.80
2008-02-14 04:30,31.765,25.231,29.674,3.82
2008-02-14 05:00,31.736,25.210,29.634,3.80
2008-02-14 05:30,31.733,25.209,29.608,3.77
2008-02-14 06:00,31.724,25.205,29.580,3.75
2008-02-14 06:30,31.691,25.183,29.511,3.70
2008-02-14 07:00,31.651,25.158,29.415,3.62
2008-02-14 07:30,31.644,25.155,29.388,3.60
2008-02-14 08:00,31.637,25.151,29.366,3.58
2008-02-14 08:30,31.633,25.150,29.353,3.56
2008-02-14 09:00,31.634,25.150,29.350,3.56
2008-02-14 09:30,31.637,25.153,29.358,3.57
2008-02-14 10:00,31.646,25.159,29.372,3.57
2008-02-14 10:30,31.657,25.165,29.406,3.60
2008-02-14 11:00,31.671,25.173,29.440,3.63
2008-02-14 11:30,31.687,25.184,29.478,3.66
2008-02-14 12:00,31.709,25.197,29.530,3.70
2008-02-14 12:30,31.723,25.206,29.557,3.72
2008-02-14 13:00,31.738,25.216,29.593,3.75
2008-02-14 13:30,31.742,25.218,29.602,3.76
2008-02-14 14:00,31.748,25.223,29.610,3.76
2008-02-14 14:30,31.748,25.223,29.605,3.75
2008-02-14 15:00,31.747,25.223,29.599,3.75
2008-02-14 15:30,31.746,25.222,29.600,3.75
2008-02-14 16:00,31.746,25.222,29.600,3.75
2008-02-14 16:30,31.745,25.222,29.598,3.75
2008-02-14 17:00,31.740,25.218,29.588,3.74
2008-02-14 17:30,31.721,25.206,29.549,3.71
2008-02-14 18:00,31.695,25.189,29.489,3.67
2008-02-14 18:30,31.676,25.177,29.441,3.63
2008-02-14 19:00,31.663,25.169,29.418,3.61
2008-02-14 19:30,31.654,25.164,29.391,3.59
2008-02-14 20:00,31.592,25.127,29.223,3.45
2008-02-14 20:30,31.568,25.112,29.165,3.40
2008-02-14 21:00,31.571,25.114,29.170,3.40
2008-02-14 21:30,31.578,25.120,29.176,3.40
2008-02-14 22:00,31.578,25.119,29.181,3.41
2008-02-14 22:30,31.576,25.119,29.167,3.39
2008-02-14 23:00,31.584,25.123,29.195,3.42
2008-02-14 23:30,31.609,25.141,29.234,3.44
2008-02-15 00:00,31.613,25.143,29.246,3.45
2008-02-15 00:30,31.606,25.137,29.239,3.45
2008-02-15 01:00,31.626,25.149,29.298,3.50
2008-02-15 01:30,31.758,25.231,29.618,3.76
2008-02-15 02:00,31.755,25.231,29.594,3.73
2008-02-15 02:30,31.733,25.219,29.522,3.67
2008-02-15 03:00,31.729,25.217,29.506,3.65
2008-02-15 03:30,31.732,25.219,29.513,3.66
2008-02-15 04:00,31.730,25.218,29.509,3.65
2008-02-15 04:30,31.729,25.218,29.499,3.64
2008-02-15 05:00,31.737,25.223,29.522,3.66
2008-02-15 05:30,31.738,25.225,29.509,3.65
2008-02-15 06:00,31.734,25.222,29.502,3.64
2008-02-15 06:30,31.738,25.222,29.537,3.68
2008-02-15 07:00,31.723,25.215,29.484,3.63
2008-02-15 07:30,31.685,25.187,29.431,3.61
2008-02-15 08:00,31.677,25.184,29.392,3.57
2008-02-15 08:30,31.669,25.178,29.378,3.56
2008-02-15 09:00,31.640,25.167,29.251,3.43
2008-02-15 09:30,31.630,25.161,29.217,3.40
2008-02-15 10:00,31.617,25.154,29.176,3.36
2008-02-15 10:30,31.613,25.153,29.154,3.34
2008-02-15 11:00,31.610,25.150,29.162,3.35
2008-02-15 11:30,31.616,25.152,29.195,3.39
2008-02-15 12:00,31.696,25.196,29.437,3.60
2008-02-15 12:30,31.733,25.219,29.525,3.67
2008-02-15 13:00,31.751,25.228,29.585,3.73
2008-02-15 13:30,31.733,25.224,29.481,3.62
2008-02-15 14:00,31.727,25.219,29.481,3.62
2008-02-15 14:30,31.719,25.213,29.466,3.61
2008-02-15 15:00,31.725,25.216,29.490,3.64
2008-02-15 15:30,31.724,25.215,29.491,3.64